星链-11392 (STARLINK-11392)

导读

STARLINK-11392是美国太空探索技术公司(SpaceX)星链(Starlink)项目中的低轨互联网通信卫星,于2025年2月21日由美国发射升空,属于星链星座扩容的一部分。它部署在近地轨道,依托星链批量组网优势,旨在为全球提供高速卫星互联网接入服务,补全球面网络覆盖空白,支撑星链系统服务能力持续提升。

基本信息
目录编号:
63056
目录名称:
STARLINK-11392
国际标识:
2025-035E
轨道中心:
EARTH
卫星名称:
星链-11392
卫星全名:
星链-11392 (STARLINK-11392)
卫星状态:
在轨 (已飞行478 天)
发射日期:
2025-02-21 UTC
国别 :
美国 (US)
星等 :
--
轨道信息
数据来源 国际轨道数据
星历时间: 2026-06-14T20:00:03+0800
6小时前
查看轨道信息
半长轴: 6734.717km
偏心率: 0.000149
轨道倾角: 43.000°
近地点辐角 277.840°
升交点赤经 151.960°
平近点角 126.187°
近地点: 355.576km
远地点: 357.584km
周期: 91.672分钟
每日圈数: 15.708105
详细信息
固有亮度:
5
最大亮度:
2.5
卫星平台:
Starlink V1.0
覆盖范围:
全球
运营商:
太空探索技术公司
运营商所在国:
美国
制造商(研发单位):
太空探索技术公司
制造商所在国:
美国
使用方式:
暂无
卫星简介
Starlink 计划是 SpaceX 推出的全球卫星互联网项目,通过发射低轨道卫星,为全球尤其是偏远地区提供高速、低延迟的互联网服务。自 2019 年起,Starlink 已部署数千颗卫星,旨在缩小全球数字鸿沟,推动互联网普及。该项目还为军事、航空等行业提供通信支持,带来广泛经济效益。
2D轨道图
3D轨道图
轨道高度分析图
轨道倾角分析图
轨道综合分析图
查看轨道综合分析图